Temperature
18 18 18 18 18 18 19 20 20 19 19 17 17 18 17 15 15 13 11 11 11 12 12 12 13 13 13 13 13 13 13 14 14 14 14 14 14 14 14 14 14 14 14 14 14 14 14 14 14
18 18 18 18 18 18 19 19 19 18 17 16 17 17 17 14 12 11 11 11 11 11 12 12 12 13 13 13 13 13 13 13 13 13 14 14 14 14 14 14 14 14 14 14 14 14 14 14 14
17 17 18 18 18 18 19 18 17 16 16 16 16 15 15 12 11 10 10 10 10 11 11 12 12 12 12 12 12 13 13 13 13 13 13 13 13 14 14 14 14 14 14 14 14 14 14 14 14
17 17 18 17 17 18 18 17 16 16 15 15 15 14 12 11 10 10 10 10 10 10 11 11 12 12 12 12 12 12 12 13 13 13 13 13 13 13 13 13 13 14 14 14 13 13 13 14 14
16 17 17 17 17 17 17 16 16 16 15 15 15 13 11 10 10 10 10 10 10 10 11 11 11 12 12 12 12 12 12 12 12 13 13 13 13 13 13 13 13 13 13 13 13 13 13 13 13
17 18 17 17 17 17 16 16 16 16 15 14 14 13 10 10 10 10 10 10 10 10 10 11 11 11 12 12 12 12 12 12 12 12 12 13 13 13 13 13 13 13 13 13 13 13 13 13 13
16 16 17 17 17 17 15 15 15 15 14 13 13 12 10 9 9 9 9 10 10 10 10 11 11 11 11 11 11 11 12 12 12 12 12 12 12 12 12 12 12 12 12 12 13 13 13 13 13
15 16 17 17 17 16 15 14 14 13 13 12 12 11 9 8 9 9 9 9 9 10 10 10 10 11 11 11 11 11 11 11 11 12 12 12 12 12 12 12 12 12 12 12 12 12 12 12 12
15 14 15 16 16 14 14 13 12 12 11 11 10 10 9 9 8 8 8 9 9 9 9 9 10 10 10 10 11 11 11 11 11 11 11 11 11 11 11 11 12 12 12 12 12 12 12 12 12
14 13 13 13 13 13 13 13 12 11 11 10 9 8 8 8 8 8 8 8 8 9 9 9 9 9 9 10 10 10 10 10 11 11 11 11 11 11 11 11 11 11 11 11 11 11 11 11 11
13 12 12 12 11 12 12 12 11 11 10 10 9 8 7 7 7 7 7 7 7 8 8 8 9 9 9 9 10 10 10 10 10 10 10 10 10 10 11 10 10 10 11 11 11 11 11 11 11
12 11 12 11 10 11 11 11 11 10 9 9 9 8 7 7 7 6 6 7 7 7 8 8 8 8 8 9 9 9 9 9 9 9 9 10 10 10 10 10 10 10 10 10 10 10 10 10 10
11 10 10 9 9 9 10 10 10 9 8 8 8 8 7 6 6 6 6 6 6 7 7 7 8 8 8 8 8 8 9 9 9 9 9 9 9 9 10 10 10 10 10 10 10 10 10 10 10
11 10 9 9 9 9 9 9 9 9 8 8 7 7 6 6 5 5 5 6 6 6 7 7 7 7 8 8 8 8 8 8 8 8 9 9 9 9 9 9 9 9 9 9 9 9 9 9 9
9 9 9 9 9 9 8 8 8 9 8 7 7 6 6 5 5 5 5 5 5 6 6 6 7 7 7 7 7 8 8 8 8 8 8 8 8 9 9 9 9 9 9 9 9 9 9 9 9
10 10 9 9 9 9 8 8 9 8 7 7 6 6 5 5 5 4 4 4 5 5 6 6 6 6 7 7 7 7 7 7 8 8 8 8 8 8 8 8 8 8 8 8 8 8 8 8 8
10 10 10 9 9 9 8 8 8 8 7 7 6 6 5 5 4 4 4 4 4 5 5 5 6 6 6 6 6 7 7 7 7 7 7 7 7 7 7 8 8 8 8 8 8 8 8 8 8
10 10 11 10 8 8 7 8 8 7 7 7 6 6 5 4 4 4 4 4 4 4 5 5 5 5 6 6 6 6 6 6 6 6 7 7 7 7 7 7 7 7 7 7 7 7 7 7 7
9 9 9 9 8 8 7 8 7 7 7 6 6 5 5 4 4 3 3 3 3 4 4 4 5 5 5 5 5 5 6 6 6 6 6 6 6 6 6 6 6 7 7 7 7 7 7 7 7
8 8 9 8 8 7 7 6 7 6 6 6 5 4 4 4 3 3 3 3 3 3 4 4 4 4 5 5 5 5 5 5 5 5 5 6 6 6 6 6 6 6 6 6 6 6 6 6 6
8 7 7 7 6 7 6 6 7 7 6 5 5 4 4 4 3 3 3 3 3 3 3 3 3 4 4 4 4 4 4 4 4 5 5 5 5 5 5 5 5 5 5 6 6 6 6 6 6
7 7 6 6 5 5 6 5 6 6 5 5 4 4 4 3 3 2 2 2 2 2 3 3 3 3 3 4 4 4 4 4 4 4 4 4 4 5 5 5 5 5 5 5 5 5 5 5 5
6 6 5 5 5 5 5 5 5 6 5 4 4 4 3 3 3 2 2 2 2 2 2 2 3 3 3 3 3 3 3 3 3 3 4 4 4 4 4 4 4 4 4 4 4 4 4 4 4
5 5 5 5 4 4 5 5 5 5 5 4 4 3 3 3 2 2 2 2 2 2 2 2 2 2 2 2 3 3 3 3 3 3 3 3 3 3 3 3 3 3 3 3 3 3 3 4 4
4 4 4 5 5 5 6 5 4 4 4 3 3 3 2 2 2 2 1 1 1 1 2 2 2 2 2 2 2 2 2 2 2 2 2 2 2 3 3 3 3 3 3 3 3 3 3 3 3
4 4 4 5 5 5 5 4 4 3 3 3 3 3 2 1 1 1 1 1 0 1 1 1 1 1 1 1 1 1 1 1 1 2 2 2 2 2 2 2 2 2 2 2 2 2 2 2 2
4 3 4 3 3 3 4 4 3 3 2 2 2 2 1 1 1 0 0 0 0 0 0 0 0 0 1 1 1 1 1 1 1 1 1 1 1 1 1 2 2 1 1 1 1 1 2 2 2
2 3 2 3 3 4 5 5 4 2 1 1 1 1 1 0 -0 -0 -0 -0 -0 -1 -1 -1 -1 -1 -0 -0 0 0 0 0 0 0 0 1 1 1 1 1 1 1 1 1 1 1 1 1 1
1 2 2 2 3 3 3 4 3 2 1 1 0 1 0 -0 -1 -1 -1 -1 -1 -1 -1 -1 -1 -1 -1 -1 -1 -0 -0 -0 0 0 0 0 0 0 0 0 0 1 1 1 1 1 1 1 1
1 1 1 1 2 2 2 2 2 1 1 1 0 0 -0 -1 -1 -1 -1 -1 -2 -2 -2 -2 -2 -2 -2 -2 -1 -1 -1 -1 -1 -0 -0 -0 -0 -0 -0 -0 -0 -0 0 0 0 0 0 0 0
Wind_Speed
16 13 6 2 2 3 4 1 1 4 4 5 6 5 6 6 5 6 3 6 6 5 6 6 7 8 8 9 9 9 8 9 9 9 9 10 9 9 10 11 11 12 13 14 14 14 14 15 14
13 7 4 3 3 4 4 2 3 5 5 4 4 4 4 6 7 6 3 5 5 6 6 6 7 8 9 9 9 8 8 8 8 8 9 9 9 9 9 10 11 12 12 13 13 13 13 13 13
9 6 3 2 3 3 0 3 6 6 7 4 4 5 5 5 6 4 4 4 5 6 7 7 7 8 8 9 9 9 8 7 7 8 8 9 9 9 9 9 10 11 12 12 12 12 12 12 11
4 3 3 3 5 2 1 5 6 6 5 4 4 4 5 6 4 5 5 4 6 7 8 8 8 8 8 9 9 9 9 7 7 7 8 8 8 8 9 9 9 10 10 11 11 11 11 10 10
3 3 3 4 5 1 3 5 4 4 4 3 3 2 4 5 8 7 5 5 5 6 9 8 8 9 8 8 8 8 8 9 8 7 8 8 8 9 9 9 9 9 9 9 9 10 9 9 8
3 3 3 6 4 3 3 3 2 3 4 2 2 2 4 5 6 4 3 4 6 7 7 7 7 8 8 8 8 8 8 8 8 8 8 8 8 8 8 8 9 9 8 8 8 8 8 8 8
2 2 4 4 3 3 3 2 1 1 3 2 1 1 4 4 4 3 3 5 6 7 7 7 6 7 7 7 7 7 7 7 7 7 7 7 7 7 8 7 7 8 7 7 7 7 7 7 7
4 2 4 4 3 2 3 2 2 3 2 3 3 1 2 2 2 2 3 4 5 6 6 6 6 6 6 5 5 6 6 6 6 7 6 5 5 6 6 6 6 6 6 6 6 6 6 6 5
3 2 3 2 2 1 3 2 3 3 2 3 3 4 3 5 3 3 3 3 4 5 4 4 5 5 4 3 4 5 5 5 5 5 5 4 4 4 4 4 5 5 6 6 5 5 5 4 4
1 2 1 3 4 2 2 1 2 2 2 1 2 4 5 5 3 2 2 2 3 4 4 4 4 5 5 4 4 4 4 3 4 3 3 3 3 3 3 4 4 4 5 5 4 4 3 3 3
1 0 2 3 5 3 1 1 1 2 3 2 3 4 4 4 2 1 0 1 1 2 3 4 4 4 5 4 3 3 3 2 2 3 3 3 4 3 3 3 4 3 3 3 3 2 2 2 2
1 1 2 2 3 2 1 0 1 2 0 3 3 5 5 4 2 1 0 0 1 2 2 3 4 4 4 4 4 3 3 3 3 3 3 3 3 3 2 2 2 2 1 1 1 1 1 2 2
3 2 1 2 1 1 2 3 2 2 1 2 4 4 4 2 1 1 0 0 1 2 2 3 4 3 3 4 4 3 3 3 3 3 4 3 3 2 2 2 2 1 1 2 2 2 2 2 2
2 1 2 2 2 2 3 4 3 4 4 3 3 3 3 2 1 1 0 1 1 1 2 2 3 3 3 3 3 3 3 3 2 3 4 4 3 2 2 2 1 1 1 2 2 2 2 2 2
1 1 3 5 4 2 1 5 6 4 4 3 2 2 3 2 1 1 1 0 1 1 1 2 2 3 2 2 2 3 3 3 2 2 3 3 3 2 2 2 1 1 1 2 2 2 2 2 1
4 3 3 4 5 3 2 6 4 5 5 3 3 3 2 2 2 1 0 0 1 1 1 2 2 3 2 1 2 2 2 2 2 2 2 2 2 2 2 2 2 2 1 1 1 1 1 1 1
4 4 4 3 5 3 5 6 3 4 4 5 4 3 3 2 1 1 1 0 0 1 1 2 1 2 2 1 1 1 2 1 2 2 1 2 1 2 2 2 2 2 2 1 1 1 1 1 1
2 4 4 3 3 3 6 8 3 4 4 4 3 3 2 2 1 0 1 1 1 1 1 2 1 2 2 1 1 1 1 1 1 1 1 2 2 1 2 2 2 2 1 1 1 1 1 1 2
5 6 7 4 1 3 8 9 5 3 3 3 2 1 1 1 1 1 1 1 1 1 1 2 2 2 1 0 0 1 1 1 1 1 1 2 2 1 1 2 1 1 1 1 1 1 2 2 1
6 8 7 3 2 3 7 9 6 3 4 2 1 1 1 1 1 1 1 1 0 0 1 1 2 2 1 1 1 1 1 2 2 1 2 2 2 1 1 1 1 1 1 1 1 1 2 2 1
6 5 5 4 5 5 6 6 5 2 3 2 1 1 1 2 1 1 0 0 0 1 2 2 2 2 1 1 1 1 1 1 1 1 1 2 2 2 2 2 1 1 1 2 2 2 2 2 2
5 2 4 5 4 4 2 5 4 4 3 2 2 1 0 1 1 0 0 1 1 1 1 2 2 2 1 1 1 0 0 2 2 2 2 3 3 3 3 2 2 2 1 2 3 2 2 2 3
2 3 4 5 5 5 5 5 5 3 3 3 1 1 1 1 1 1 1 1 1 1 1 1 1 1 1 0 0 1 1 2 2 2 3 3 3 3 3 3 2 2 2 2 3 3 3 3 3
2 3 3 3 2 5 7 6 4 2 2 1 2 1 1 1 1 1 1 1 1 1 1 1 1 1 1 1 1 1 2 3 3 3 3 3 2 3 4 4 3 3 3 3 4 4 4 4 4
2 1 2 2 3 5 3 4 5 1 3 2 2 1 2 2 2 2 1 1 1 1 1 1 1 2 2 2 2 3 3 3 3 4 4 3 3 3 4 4 4 4 4 4 5 5 5 5 5
3 1 2 3 4 3 2 5 3 3 4 4 3 2 3 3 3 2 2 1 2 2 1 1 2 2 2 2 3 3 3 3 3 4 4 4 4 4 5 4 5 5 6 6 6 5 5 5 6
1 2 1 1 3 4 5 3 1 2 2 2 2 2 2 3 3 3 3 2 2 2 2 2 2 3 3 3 3 4 4 4 4 4 4 4 4 5 5 5 5 5 6 7 6 6 6 6 6
2 1 1 2 2 5 5 4 2 2 2 0 1 2 2 2 3 3 3 3 3 3 3 3 3 3 3 3 3 4 4 4 4 4 5 5 5 5 5 5 5 6 7 7 7 6 6 7 7
3 2 3 3 3 3 5 3 0 2 2 1 1 2 2 3 3 3 3 3 3 3 3 4 4 4 4 4 4 4 4 4 4 4 5 5 5 6 5 6 6 6 7 7 7 7 7 8 8
1 3 4 3 4 4 4 5 1 2 2 2 1 2 2 2 2 3 3 3 4 4 4 4 5 5 5 5 4 4 5 4 5 5 6 6 6 6 6 6 6 7 7 6 7 7 7 8 8
Wind_Direction
310 288 265 265 243 231 238 234 65 72 56 36 20 25 43 33 29 103 108 47 43 44 53 44 32 40 40 40 46 48 52 56 56 57 57 56 59 61 63 62 62 63 63 62 62 62 63 64 63
302 291 262 242 241 234 223 188 88 64 70 56 35 26 59 69 65 92 66 28 42 52 61 51 39 42 42 41 46 46 50 56 56 57 57 56 58 61 63 65 65 66 65 63 62 61 61 62 60
285 270 263 239 238 257 233 89 88 80 81 72 53 23 37 64 75 79 47 25 48 53 60 58 49 45 43 43 47 46 47 54 55 55 54 55 58 60 64 66 67 68 68 66 63 62 61 60 57
283 243 249 255 250 277 4 81 89 101 90 65 77 76 73 52 55 62 45 38 54 53 58 62 53 49 45 43 46 47 45 50 55 55 54 55 56 62 65 67 69 70 69 68 65 62 59 57 53
247 249 220 232 240 230 57 79 100 109 112 98 90 78 91 74 59 63 49 43 56 51 54 60 53 48 44 40 40 43 44 48 52 57 57 56 57 61 67 68 72 72 71 69 66 62 58 54 49
257 246 230 229 216 156 98 71 117 106 109 96 84 74 101 85 59 48 47 47 57 58 54 60 53 50 45 39 37 37 40 46 50 52 56 56 59 62 66 70 71 73 75 71 69 64 59 54 48
297 268 252 255 221 180 138 111 111 100 118 101 34 74 123 84 51 40 48 50 55 61 56 52 46 49 47 40 34 35 37 42 49 49 50 56 60 66 66 67 68 70 75 74 72 69 63 54 46
316 297 252 253 246 177 109 119 58 23 63 49 28 73 129 108 49 41 52 54 55 55 48 43 38 39 40 38 35 38 39 44 48 48 45 58 71 73 70 66 65 68 72 76 76 73 68 56 43
297 263 253 301 322 87 108 115 77 46 63 61 47 26 72 105 89 65 47 41 37 38 33 34 29 26 27 35 33 36 40 48 49 48 45 53 68 81 81 78 71 71 71 75 80 74 68 58 40
316 238 303 14 9 45 106 107 119 150 171 153 85 67 94 101 97 85 51 34 27 20 9 16 20 16 13 23 32 31 33 46 45 39 32 27 52 69 85 98 87 75 78 74 75 78 72 57 39
347 277 69 42 17 24 71 48 145 201 215 210 180 147 129 119 125 133 81 41 21 18 8 9 11 13 14 12 18 23 20 26 26 26 14 26 48 59 75 84 79 68 79 69 70 92 56 55 53
103 8 24 51 16 2 348 1 266 240 359 28 95 138 146 153 168 173 201 344 12 27 6 7 10 11 11 6 0 11 22 21 21 15 11 25 31 32 47 70 82 74 55 37 27 346 7 34 53
207 182 71 56 23 332 312 268 264 232 167 66 92 114 134 146 155 145 62 2 29 20 3 356 5 5 8 10 358 4 8 17 19 15 9 27 25 17 17 51 59 34 20 3 338 344 5 15 14
62 117 194 210 226 220 260 260 243 225 151 126 124 143 158 170 169 138 168 296 334 1 354 341 350 356 11 8 355 350 356 3 13 14 8 17 24 13 4 11 33 4 354 348 335 342 344 358 13
153 192 218 208 205 173 299 258 215 184 141 151 169 179 173 172 164 201 227 302 337 338 336 331 340 351 12 2 342 341 344 347 357 2 358 7 17 9 349 352 351 351 354 340 338 350 2 352 338
213 223 232 184 178 152 208 264 177 147 160 193 202 196 191 186 171 170 113 23 1 350 342 325 332 339 341 353 331 331 329 336 342 339 329 337 355 355 343 343 339 341 335 330 328 324 330 315 288
207 244 246 195 184 178 218 257 191 164 188 215 218 203 196 187 160 131 132 102 25 356 346 326 320 328 330 332 321 318 322 324 319 315 319 320 332 324 336 341 335 344 341 322 292 291 260 279 285
274 278 274 244 185 221 239 258 227 188 211 229 219 204 193 185 215 172 114 95 61 21 357 334 319 335 333 334 341 332 313 326 307 293 290 303 313 313 333 335 334 354 328 289 277 292 294 256 259
304 286 281 281 173 240 249 265 253 227 229 235 217 199 204 214 181 102 83 68 57 26 9 334 327 330 348 347 328 280 272 304 313 295 280 288 295 310 339 318 305 346 287 270 274 281 280 276 272
277 280 284 312 39 290 278 269 254 211 204 201 192 212 209 224 122 98 60 62 44 346 328 306 316 316 309 303 269 248 257 270 271 293 307 281 287 287 270 295 272 268 253 251 270 267 254 268 269
262 264 282 297 312 262 286 276 223 191 169 159 179 177 188 196 184 170 230 290 301 294 277 269 283 302 309 334 358 347 340 304 292 283 293 288 276 274 276 272 293 280 244 228 243 240 229 248 261
273 329 294 291 301 274 228 283 234 202 188 186 191 186 200 183 153 154 267 279 285 281 281 257 278 294 319 10 43 77 268 269 275 274 267 285 281 272 265 258 262 256 267 243 242 237 244 233 245
296 332 293 272 259 276 237 246 268 188 218 218 171 122 61 102 151 201 249 264 308 328 317 270 282 290 327 6 199 233 264 277 292 292 272 263 271 262 257 254 250 251 260 259 250 245 239 236 239
309 301 273 257 240 257 223 214 274 207 206 163 174 163 93 62 67 21 13 26 347 343 344 329 295 290 264 255 246 242 258 279 290 294 283 274 274 264 248 246 240 247 249 251 249 241 235 237 238
305 348 340 297 235 243 178 211 247 160 82 121 158 139 67 41 23 11 5 349 331 337 350 334 297 281 276 267 259 253 255 259 260 271 275 279 278 275 250 250 238 243 244 250 248 241 239 237 239
252 228 189 247 267 288 241 229 230 115 81 61 82 89 48 24 7 356 348 349 346 342 343 329 293 288 280 274 279 275 264 259 263 265 266 264 266 266 265 250 243 240 239 244 240 238 239 238 239
247 230 277 263 281 272 247 222 169 106 65 56 64 58 29 8 3 351 353 350 342 338 338 329 309 301 294 288 285 280 274 273 272 272 271 270 266 270 267 257 249 249 243 241 237 234 236 239 241
293 306 155 194 257 272 270 234 222 202 224 181 29 11 357 5 357 351 347 348 354 350 345 345 337 315 299 296 288 286 286 280 273 269 265 265 263 264 262 262 250 250 247 243 239 237 237 237 241
183 206 224 236 237 241 275 268 357 150 165 172 335 7 1 358 348 343 350 358 356 350 344 336 331 331 323 311 306 301 296 293 286 277 270 267 264 260 257 258 253 244 244 243 238 235 236 236 241
209 214 186 197 245 232 261 269 5 73 90 96 24 352 343 345 341 343 349 354 350 344 342 337 331 326 321 317 306 302 298 294 289 285 282 277 270 263 257 257 256 249 244 243 243 240 241 239 241
Height
1499 1500 1502 1504 1506 1509 1509 1503 1499 1503 1506 1510 1511 1511 1514 1519 1522 1532 1532 1530 1529 1529 1529 1530 1531 1531 1532 1532 1533 1533 1534 1534 1535 1536 1536 1537 1537 1538 1538 1538 1539 1539 1539 1539 1540 1540 1540 1540 1540
1499 1501 1503 1504 1507 1512 1509 1503 1504 1507 1510 1512 1513 1514 1516 1522 1525 1528 1528 1529 1529 1529 1529 1530 1530 1531 1532 1532 1533 1533 1534 1535 1535 1536 1536 1537 1537 1538 1538 1539 1539 1539 1540 1540 1540 1540 1541 1541 1541
1499 1501 1504 1503 1506 1508 1506 1504 1507 1510 1512 1514 1516 1517 1520 1525 1527 1527 1528 1529 1529 1529 1529 1529 1530 1531 1532 1532 1533 1533 1534 1535 1535 1536 1536 1537 1537 1538 1538 1539 1539 1540 1540 1540 1541 1541 1541 1542 1542
1500 1503 1504 1506 1507 1505 1504 1506 1508 1511 1513 1516 1518 1521 1524 1527 1527 1527 1528 1529 1529 1528 1528 1529 1530 1531 1531 1532 1533 1533 1534 1535 1535 1536 1536 1537 1537 1538 1538 1539 1540 1540 1540 1541 1541 1541 1542 1542 1542
1501 1502 1504 1507 1506 1505 1506 1508 1509 1511 1514 1517 1518 1521 1525 1527 1526 1527 1527 1528 1528 1528 1528 1528 1529 1530 1531 1531 1532 1533 1534 1534 1535 1536 1536 1537 1537 1538 1538 1539 1540 1540 1540 1541 1541 1541 1542 1542 1543
1502 1500 1505 1507 1504 1505 1508 1509 1510 1512 1515 1518 1519 1522 1525 1526 1525 1526 1527 1527 1528 1527 1527 1528 1529 1529 1530 1531 1531 1532 1533 1534 1535 1536 1536 1537 1537 1538 1538 1539 1539 1540 1540 1541 1541 1541 1542 1542 1543
1502 1501 1503 1501 1504 1505 1509 1511 1512 1513 1515 1518 1520 1522 1524 1524 1525 1525 1526 1526 1527 1527 1527 1528 1528 1529 1529 1530 1531 1532 1532 1533 1534 1535 1536 1536 1537 1537 1538 1538 1539 1539 1540 1540 1541 1541 1541 1542 1542
1501 1502 1501 1501 1503 1506 1510 1511 1513 1515 1516 1519 1520 1522 1523 1523 1524 1524 1525 1525 1526 1526 1526 1527 1527 1528 1528 1529 1530 1531 1532 1532 1533 1534 1535 1535 1536 1536 1537 1538 1539 1539 1539 1540 1540 1541 1541 1541 1542
1501 1506 1505 1504 1505 1508 1510 1512 1514 1515 1517 1519 1520 1521 1521 1522 1522 1523 1523 1524 1524 1525 1525 1525 1525 1526 1527 1527 1528 1529 1530 1531 1532 1532 1533 1534 1535 1535 1536 1537 1538 1538 1539 1539 1540 1540 1540 1541 1542
1503 1508 1508 1509 1508 1509 1511 1512 1514 1515 1517 1518 1519 1520 1521 1521 1521 1521 1521 1521 1522 1523 1524 1524 1524 1524 1525 1526 1526 1527 1528 1529 1530 1530 1531 1532 1533 1534 1535 1536 1537 1537 1538 1538 1539 1539 1540 1540 1541
1505 1508 1508 1510 1510 1510 1511 1513 1513 1514 1516 1517 1517 1518 1519 1519 1519 1520 1520 1520 1521 1521 1522 1522 1523 1523 1523 1524 1524 1525 1526 1527 1528 1529 1530 1531 1532 1532 1533 1534 1535 1536 1536 1537 1538 1538 1539 1540 1540
1507 1509 1509 1511 1511 1512 1512 1513 1514 1514 1515 1515 1515 1516 1517 1517 1518 1518 1518 1519 1519 1519 1520 1520 1520 1521 1521 1522 1522 1523 1524 1525 1526 1527 1528 1529 1529 1530 1531 1532 1533 1534 1535 1535 1536 1537 1538 1539 1539
1507 1509 1510 1511 1512 1512 1513 1513 1513 1513 1513 1514 1514 1515 1515 1516 1516 1517 1517 1517 1517 1517 1517 1518 1518 1519 1519 1520 1520 1521 1522 1523 1524 1525 1526 1527 1527 1528 1529 1530 1531 1532 1533 1534 1535 1535 1536 1537 1538
1507 1509 1510 1511 1511 1512 1512 1512 1512 1510 1511 1512 1513 1513 1514 1515 1515 1514 1514 1514 1514 1515 1515 1515 1516 1516 1517 1517 1518 1519 1520 1521 1522 1523 1523 1525 1525 1526 1527 1528 1529 1530 1531 1532 1533 1533 1534 1535 1535
1508 1510 1510 1509 1510 1511 1512 1511 1509 1508 1509 1510 1511 1512 1512 1513 1513 1512 1512 1512 1512 1512 1513 1513 1513 1514 1514 1515 1516 1516 1517 1518 1519 1520 1521 1522 1523 1524 1525 1526 1527 1528 1529 1530 1531 1531 1532 1532 1533
1507 1508 1509 1507 1508 1509 1514 1509 1505 1505 1507 1508 1509 1510 1510 1511 1510 1510 1510 1510 1510 1510 1510 1510 1511 1511 1512 1512 1513 1513 1514 1515 1516 1517 1519 1519 1520 1521 1522 1523 1524 1525 1526 1527 1528 1529 1529 1530 1530
1507 1507 1504 1506 1506 1507 1510 1506 1504 1504 1504 1505 1506 1507 1507 1508 1508 1508 1508 1507 1507 1507 1507 1507 1508 1508 1508 1509 1510 1511 1511 1512 1513 1514 1515 1516 1517 1518 1519 1520 1521 1522 1523 1524 1525 1526 1526 1527 1528
1508 1505 1501 1503 1504 1506 1506 1503 1501 1502 1502 1502 1503 1504 1505 1505 1505 1505 1505 1505 1505 1504 1504 1504 1505 1505 1505 1506 1507 1508 1508 1509 1510 1511 1512 1513 1514 1515 1516 1517 1518 1519 1520 1521 1522 1523 1524 1525 1525
1506 1506 1504 1502 1502 1504 1503 1500 1499 1499 1500 1500 1501 1501 1502 1503 1503 1503 1503 1502 1502 1502 1501 1502 1502 1502 1502 1502 1503 1504 1504 1506 1507 1508 1509 1510 1511 1511 1512 1513 1514 1515 1517 1517 1518 1519 1521 1521 1522
1507 1507 1504 1503 1503 1504 1502 1499 1496 1496 1497 1498 1498 1499 1499 1500 1500 1500 1500 1500 1499 1499 1499 1499 1499 1499 1499 1500 1500 1501 1502 1502 1503 1504 1505 1506 1507 1507 1508 1509 1510 1511 1513 1514 1515 1515 1517 1518 1519
1506 1508 1507 1508 1507 1504 1505 1499 1494 1492 1494 1496 1496 1496 1497 1498 1497 1497 1497 1497 1496 1496 1496 1496 1496 1496 1497 1497 1497 1498 1498 1499 1500 1501 1501 1502 1503 1503 1504 1505 1506 1507 1509 1510 1511 1512 1513 1514 1515
1507 1507 1507 1508 1512 1509 1505 1506 1493 1491 1492 1493 1494 1495 1495 1495 1495 1495 1495 1494 1494 1494 1494 1494 1494 1494 1494 1494 1494 1494 1495 1495 1496 1497 1497 1498 1499 1499 1500 1501 1502 1503 1505 1506 1507 1508 1509 1510 1511
1509 1508 1508 1508 1509 1510 1504 1507 1495 1490 1492 1492 1492 1493 1494 1494 1494 1494 1493 1493 1493 1492 1492 1491 1491 1491 1491 1491 1492 1492 1492 1492 1493 1493 1494 1494 1494 1495 1496 1497 1498 1499 1500 1501 1502 1503 1504 1506 1506
1509 1508 1507 1508 1510 1511 1499 1503 1495 1493 1490 1490 1491 1491 1492 1493 1493 1492 1492 1492 1491 1491 1490 1489 1489 1488 1488 1488 1488 1488 1489 1489 1489 1489 1490 1490 1490 1491 1492 1493 1493 1494 1496 1496 1498 1499 1500 1501 1502
1511 1513 1512 1510 1508 1501 1494 1498 1497 1490 1489 1489 1490 1491 1491 1491 1491 1491 1490 1489 1489 1488 1487 1487 1486 1486 1486 1485 1485 1486 1485 1485 1485 1485 1485 1485 1486 1486 1487 1488 1488 1489 1490 1492 1493 1494 1495 1496 1497
1511 1511 1514 1514 1505 1498 1497 1498 1493 1489 1489 1489 1490 1491 1491 1491 1490 1490 1489 1487 1487 1486 1486 1485 1484 1483 1483 1483 1483 1483 1482 1482 1482 1481 1481 1481 1481 1481 1482 1482 1483 1484 1485 1487 1488 1489 1489 1490 1491
1511 1512 1511 1514 1511 1511 1497 1491 1491 1489 1489 1489 1489 1489 1490 1490 1489 1489 1488 1487 1485 1485 1484 1483 1481 1481 1480 1480 1480 1479 1479 1478 1478 1478 1478 1477 1477 1477 1477 1477 1478 1479 1480 1481 1482 1483 1483 1485 1485
1513 1512 1515 1515 1513 1505 1491 1486 1490 1491 1490 1490 1489 1489 1489 1489 1489 1488 1487 1486 1485 1484 1482 1481 1480 1479 1478 1477 1476 1475 1475 1474 1474 1474 1473 1473 1472 1473 1472 1472 1472 1474 1475 1476 1476 1477 1478 1479 1480
1515 1515 1513 1511 1508 1508 1502 1495 1488 1487 1487 1488 1489 1488 1488 1488 1488 1487 1486 1485 1484 1482 1481 1479 1478 1476 1475 1474 1472 1471 1470 1470 1469 1469 1468 1468 1468 1467 1466 1467 1467 1468 1469 1470 1470 1471 1472 1473 1473
1511 1511 1513 1516 1512 1508 1507 1500 1488 1486 1486 1487 1488 1488 1488 1487 1487 1486 1485 1483 1482 1481 1479 1478 1476 1474 1472 1471 1469 1467 1466 1465 1464 1464 1463 1463 1462 1462 1461 1461 1462 1462 1463 1463 1464 1465 1466 1466 1467